Weather observations for the past three days for
Sandberg
| Date | Time (pdt) | Wind (mph) | Vis. (mi.) | Weather | Sky Cond. | Temperature (ºF) | Relative Humidity | Wind Chill (°F) | Heat Index (°F) | Pressure | Precipitation (in) | ||||||
|---|---|---|---|---|---|---|---|---|---|---|---|---|---|---|---|---|---|
| Air | Dwpt | 6 hour | altimeter (in) | sea level (mb) | 1 hr | 3 hr | 6 hr | ||||||||||
| Max. | Min. | ||||||||||||||||
| 08 | 17:51 | NW 18 G 24 | 10.00 | Fair | CLR | 70 | 41 | 35% | 30.07 | 1013.8 | |||||||
| 08 | 16:51 | NW 20 G 30 | 10.00 | Fair | CLR | 71.1 | 41 | 73 | 68 | 34% | 30.08 | 1013.9 | |||||
| 08 | 15:51 | NW 17 G 32 | 10.00 | Fair | CLR | 72 | 41 | 33% | 30.09 | 1014.3 | |||||||
| 08 | 14:51 | N 14 G 35 | 10.00 | Fair | CLR | 72 | 39.9 | 31% | 30.1 | 1014.6 | |||||||
| 08 | 13:51 | N 22 G 39 | 10.00 | Fair and Breezy | CLR | 72 | 42.1 | 34% | 30.12 | 1015.0 | |||||||
| 08 | 12:51 | N 22 G 36 | 10.00 | Fair and Breezy | CLR | 72 | 42.1 | 34% | 30.12 | 1015.0 | |||||||
| 08 | 11:51 | N 23 G 36 | 10.00 | Fair and Breezy | CLR | 71.1 | 41 | 34% | 30.13 | 1015.3 | |||||||
| 08 | 10:51 | N 20 G 33 | 10.00 | Fair | CLR | 68 | 46.9 | 68 | 57 | 47% | 30.13 | 1015.8 | |||||
| 08 | 09:51 | N 15 G 35 | 10.00 | Fair | CLR | 64.9 | 50 | 59% | 30.14 | 1016.1 | |||||||
| 08 | 08:51 | N 15 G 30 | 10.00 | Fair | CLR | 62.1 | 52 | 70% | 30.13 | 1016.3 | |||||||
| 08 | 07:51 | NW 26 G 33 | 10.00 | Fair and Windy | CLR | 59 | 52 | 78% | 30.12 | 1016.1 | |||||||
| 08 | 06:51 | NW 21 G 35 | 10.00 | Fair and Breezy | CLR | 57.9 | 50 | 75% | 30.11 | 1015.4 | |||||||
| 08 | 05:51 | NW 23 G 43 | 10.00 | Fair and Breezy | CLR | 57 | 48.9 | 74% | 30.1 | 1015.0 | |||||||
| 08 | 04:51 | NW 24 G 33 | 10.00 | Fair and Breezy | CLR | 57.9 | 48.9 | 62.1 | 57 | 72% | 30.1 | 1014.5 | |||||
| 08 | 03:51 | NW 25 G 37 | 10.00 | Fair and Breezy | CLR | 57.9 | 48.9 | 72% | 30.1 | 1014.5 | |||||||
| 08 | 02:51 | NW 20 G 32 | 10.00 | Fair | CLR | 59 | 48.9 | 69% | 30.11 | 1014.7 | |||||||
| 08 | 01:51 | NW 14 G 33 | 10.00 | Fair | CLR | 60.1 | 46.9 | 62% | 30.13 | 1015.0 | |||||||
| 08 | 00:51 | NW 13 G 22 | 10.00 | Fair | CLR | 61 | 46 | 58% | 30.15 | 1015.5 | |||||||
| 07 | 23:51 | Vrbl 6 | 10.00 | Fair | CLR | 62.1 | 42.1 | 48% | 30.15 | 1015.7 | |||||||
| 07 | 22:51 | Calm | 10.00 | Fair | CLR | 61 | 43 | 72 | 60.1 | 52% | 30.15 | 1015.9 | |||||
| 07 | 21:51 | N 9 | 10.00 | Fair | CLR | 61 | 46.9 | 60% | 30.15 | 1016.1 | |||||||
| 07 | 20:51 | Calm | 10.00 | Fair | CLR | 60.1 | 48 | 65% | 30.13 | 1015.8 | |||||||
| 07 | 19:51 | Calm | 10.00 | Fair | CLR | 61 | 48.9 | 65% | 30.12 | 1015.6 | |||||||
| 07 | 18:51 | NW 17 G 25 | 10.00 | Fair | CLR | 64.9 | 48 | 54% | 30.11 | 1015.0 | |||||||
| 07 | 17:51 | NW 18 G 29 | 10.00 | Fair | CLR | 68 | 48 | 49% | 30.11 | 1015.1 | |||||||
| 07 | 16:51 | NW 17 G 29 | 10.00 | Fair | CLR | 72 | 46 | 79 | 71.1 | 40% | 30.11 | 1014.8 | |||||
| 07 | 15:51 | NW 15 G 29 | 10.00 | Fair | CLR | 72 | 46.9 | 41% | 30.11 | 1014.9 | |||||||
| 07 | 14:51 | NW 22 | 10.00 | Fair and Breezy | CLR | 73.9 | 43 | 33% | 30.12 | 1015.2 | |||||||
| 07 | 13:51 | NW 21 | 10.00 | Fair and Breezy | CLR | 77 | 43 | 30% | 78 | 30.13 | 1015.4 | ||||||
| 07 | 12:51 | NW 13 G 18 | 10.00 | Fair | CLR | 78.1 | 39 | 25% | 78 | 30.14 | 1015.7 | ||||||
| 07 | 11:51 | Calm | 10.00 | Fair | CLR | 75.9 | 37.9 | 25% | 77 | 30.16 | 1016.3 | ||||||
| 07 | 10:51 | Vrbl 3 | 10.00 | Fair | CLR | 73.9 | 37.9 | 73.9 | 57 | 27% | 30.16 | 1016.7 | |||||
| 07 | 09:51 | Vrbl 3 | 10.00 | Fair | CLR | 71.1 | 39 | 31% | 30.16 | 1016.9 | |||||||
| 07 | 08:51 | N 7 | 10.00 | Fair | CLR | 68 | 37.9 | 33% | 30.16 | 1016.7 | |||||||
| 07 | 07:51 | N 14 | 10.00 | Fair | CLR | 64 | 37 | 37% | 30.15 | 1017.0 | |||||||
| 07 | 06:51 | NW 17 | 10.00 | Fair | CLR | 61 | 36 | 39% | 30.14 | 1016.3 | |||||||
| 07 | 05:51 | N 18 | 10.00 | Fair | CLR | 57.9 | 37 | 46% | 30.13 | 1016.0 | |||||||
| 07 | 04:51 | NW 18 | 10.00 | Fair | CLR | 57 | 37.9 | 59 | 55 | 49% | 30.13 | 1015.9 | |||||
| 07 | 03:51 | N 22 G 31 | 10.00 | Fair and Breezy | CLR | 57 | 39 | 51% | 30.13 | 1015.9 | |||||||
| 07 | 02:51 | N 15 G 25 | 10.00 | Fair | CLR | 57 | 39 | 51% | 30.14 | 1016.0 | |||||||
| 07 | 01:51 | N 6 | 10.00 | Fair | CLR | 57 | 39 | 51% | 30.15 | 1016.6 | |||||||
| 07 | 00:51 | N 12 | 10.00 | Fair | CLR | 57 | 39.9 | 53% | 30.16 | 1016.9 | |||||||
| 06 | 23:51 | N 8 G 17 | 10.00 | Fair | CLR | 57 | 39.9 | 53% | 30.16 | 1017.2 | |||||||
| 06 | 22:51 | NW 13 | 10.00 | Fair | CLR | 55.9 | 39.9 | 66.9 | 54 | 55% | 30.16 | 1017.5 | |||||
| 06 | 21:51 | NW 16 | 10.00 | Fair | CLR | 55 | 42.1 | 62% | 30.15 | 1017.8 | |||||||
| 06 | 20:51 | NW 23 G 31 | 10.00 | Fair and Breezy | CLR | 57.9 | 39 | 50% | 30.14 | 1017.5 | |||||||
| 06 | 19:51 | NW 17 | 10.00 | Fair | CLR | 55.9 | 43 | 62% | 30.13 | 1017.3 | |||||||
| 06 | 18:51 | N 13 | 10.00 | Fair | CLR | 60.1 | 45 | 58% | 30.12 | 1017.1 | |||||||
| 06 | 17:51 | NW 12 | 10.00 | Fair | CLR | 64 | 45 | 50% | 30.12 | 1016.9 | |||||||
| 06 | 16:51 | N 13 | 10.00 | Fair | CLR | 66.9 | 44.1 | 71.1 | 57.9 | 44% | 30.11 | 1016.4 | |||||
| 06 | 15:51 | NW 13 | 10.00 | Fair | CLR | 69.1 | 42.1 | 38% | 30.12 | 1016.3 | |||||||
| 06 | 14:51 | N 10 | 10.00 | Fair | CLR | 70 | 39.9 | 34% | 30.13 | 1016.7 | |||||||
| 06 | 13:51 | Vrbl 7 | 10.00 | Fair | CLR | 68 | 41 | 38% | 30.13 | 1016.9 | |||||||
| 06 | 12:51 | Vrbl 3 | 10.00 | Fair | CLR | 69.1 | 39 | 33% | 30.14 | 1017.0 | |||||||
| 06 | 11:51 | Vrbl 5 | 10.00 | Fair | CLR | 64 | 39.9 | 41% | 30.14 | 1017.6 | |||||||
| 06 | 10:51 | NW 13 G 23 | 10.00 | Fair | CLR | 59 | 37.9 | 59 | 42.1 | 46% | 30.14 | 1017.9 | |||||
| 06 | 09:51 | N 15 G 25 | 10.00 | Fair | CLR | 55 | 39.9 | 57% | 30.13 | 1017.9 | |||||||
| 06 | 08:51 | NW 20 | 10.00 | Fair | CLR | 50 | 41 | 71% | 44 | 30.12 | 1017.9 | ||||||
| 06 | 07:51 | N 16 G 29 | 10.00 | Fair | CLR | 46.9 | 39.9 | 77% | 41 | 30.11 | 1018.0 | ||||||
| 06 | 06:51 | NW 26 G 40 | 10.00 | Fair and Windy | CLR | 44.1 | 39.9 | 85% | 35 | 30.09 | 1017.1 | ||||||
| 06 | 05:51 | NW 26 | 10.00 | Fair and Windy | CLR | 43 | 39.9 | 89% | 34 | 30.08 | 1016.6 | ||||||
| 06 | 04:51 | N 20 G 32 | 10.00 | Fair | CLR | 43 | 39.9 | 44.1 | 42.1 | 89% | 35 | 30.07 | 1016.4 | ||||
| 06 | 03:51 | N 24 G 35 | 10.00 | Fair and Breezy | CLR | 43 | 39.9 | 89% | 34 | 30.06 | 1015.8 | ||||||
| 06 | 02:51 | NW 29 G 39 | 10.00 | Fair and Windy | CLR | 43 | 39.9 | 89% | 33 | 30.05 | 1015.8 | ||||||
| 06 | 01:51 | NW 24 G 32 | 10.00 | Fair and Breezy | CLR | 43 | 39.9 | 89% | 34 | 30.07 | 1016.1 | ||||||
| 06 | 00:51 | NW 17 | 10.00 | Fair | CLR | 43 | 39 | 86% | 36 | 30.07 | 1016.8 | ||||||
| 05 | 23:51 | N 14 | 10.00 | Fair | CLR | 42.1 | 39 | 89% | 35 | 30.06 | 1016.7 | ||||||
| 05 | 22:51 | N 12 G 20 | 10.00 | Fair | CLR | 43 | 39 | 51.1 | 43 | 86% | 37 | 30.05 | 1016.1 | ||||
| 05 | 21:51 | NW 18 G 24 | 10.00 | Fair | CLR | 43 | 39 | 86% | 35 | 30.04 | 1015.8 | ||||||
| 05 | 20:51 | N 14 G 24 | 10.00 | A Few Clouds | FEW009 | 43 | 39.9 | 89% | 37 | 30.03 | 1015.3 | ||||||
| 05 | 19:51 | N 12 G 24 | 10.00 | Mostly Cloudy | SCT011 BKN015 | 43 | 39.9 | 89% | 37 | 30 | 1014.5 | ||||||
| 05 | 18:51 | NW 20 | 10.00 | A Few Clouds | FEW015 | 45 | 39.9 | 83% | 38 | 29.99 | 1013.7 | ||||||
| Date | Time (pdt) | Wind (mph) | Vis. (mi.) | Weather | Sky Cond. | Air | Dwpt | Max. | Min. | Relative Humidity | Wind Chill (°F) | Heat Index (°F) | altimeter (in) | sea level (mb) | 1 hr | 3 hr | 6 hr |
| 6 hour | |||||||||||||||||
| Temperature (ºF) | Pressure | Precipitation (in) | |||||||||||||||